Weather in Foros

Russia / Republic of Crimea     44°23′30″N   33°47′14″E
temp.,
°C
wind,
m/s
gust,
m/s
humid.,
%
clouds,
%
prec.,
mm/h
press.,
hPa
HPBL,
m
7 march, sun
sun700:00−1nne5106911 0.0 1028714
03:00−2nne37696 0.0 1029432
06:00−3nne35620 0.0 1029205
09:00−1nne24330 0.0 1028288
12:00+3nnw22190 0.0 10281350
15:00+2nw44340 0.0 10261167
18:000nw24460 0.0 10241100
21:00−2w02560 0.0 102321
8 march, mon
mon800:00−1ssw12570 0.0 102231
03:00−1sw12600 0.0 102133
06:00−1ssw12650 0.0 102032
09:00+1sw356042 0.0 1019949
12:00+3sw555893 0.0 10181134
15:00+3sw466495 0.0 10171022
18:00+2sw3671100 0.1 1016736
21:00+2sw2685100 0.1 1017274
9 march, tue
tue900:00+2sw3793100 0.6 1017460
03:00+2nne1291100 2.4 1017203
06:000nne228726 0.1 101729
09:00+3nne236313 0.1 1019260
12:00+5nnw235019 0.0 10201284
15:00+6nw444956 0.1 10201419
18:00+3nnw346515 0.1 1019574
21:00+1nne227524 0.1 102167
10 march, wed
wed1000:000ne127533 0.0 102126
03:00−1ne127258 0.0 102122
06:00−1nne2274100 0.0 102053
09:00+1ne2262100 0.0 1021194
12:00+5w1151100 0.0 1020898
15:00+5wsw2249100 0.0 10191188
18:00+3sw1360100 0.0 1019775
21:00+2se2379100 0.0 1020251
11 march, thu
thu1100:00+1w138199 0.1 1020372
03:00−2nne228798 0.1 102289
06:00−3ne346311 0.0 1023194
09:000ne23536 0.0 1025308
12:00+2wnw124337 0.0 10261463
15:00+2ne125551 0.1 10271058
18:00+1nne234864 0.0 10271162
21:00−1se226449 0.0 102837